Kuiper-00035

operational
NORAD ID: 63748 Int'l Des: 2025-088 Owner: KUIP Country: US Constellation: kuiper
LEOCIRCULAR

About Kuiper-00035

Description loading...

Live Position

Loading 3D Globe...

Upcoming Passes

Altitude History

Altitude vs Time

uPlot chart will show altitude changes over time

Two-Line Element Set

1 63748U 25088AA 25352.60405435 .00005423 00000-0 74019-3 0 9993
2 63748 51.9000 112.6733 0006757 162.3604 197.7594 14.79902681 35507
Epoch: Dec 18, 2025 • Age: 26 hours

Current Status

Altitude 635.1 km
Velocity 7.55 km/s
Sub-Earth Point 51.50°N, 154.07°W
Launch Date Apr 28, 2025
Age 0.6 years
Type internet

Technical Details

Classification Payload
Mass 490.00 kg
Dry Mass 490.00 kg
Total Mass 490.00 kg
Length 1.80 m
Diameter 0.70 m
Span 5.00 m
Shape Box + 2 pan
Manufacturer KUIP
Bus Type Kuiper
Phase Status In Orbit
Owner/State KUIP/US

Large Constellations

Loading constellations...